Location: Acequia del Cap
(41.7000°N, 0.6167°E)
Time: 22:42:46
(UTC+00:00)

CZ-2D R/B - Pass Details

Date: 07 August 2020
Orbit: 792 x 845 km, 98.7° (Epoch: 21 September)

Event Time Altitude Azimuth Distance (km) Brightness Sun altitude
Rises 00:31:17 0° 27° (NNE) 3,409 6.3 -31.6°
Reaches altitude 10° 00:34:09 10° 41° (NE) 2,472 5.3 -31.5°
Enters shadow 00:38:04 23° 87° (E) 1,716 3.9 -31.4°
